Temp
-7 -7 -7 -6 -6 -6 -6 -5 -5 -4 -4 -4 -3 -3 -3 -5 -5 -5 -5 -5 -5 -4 -4 -4 -3 -2 -2 -3 -3 -3 -3 -3 -3 -3 -3 -3 -3 -3 -4 -4 -4 -4 -4
-7 -7 -7 -7 -7 -6 -6 -6 -5 -4 -4 -4 -5 -5 -4 -4 -5 -5 -5 -4 -5 -4 -4 -3 -4 -4 -4 -3 -4 -3 -3 -4 -3 -4 -3 -3 -3 -4 -4 -4 -4 -4 -4
-8 -8 -8 -7 -7 -6 -6 -6 -6 -5 -5 -5 -5 -5 -4 -4 -4 -4 -4 -4 -5 -5 -3 -5 -4 -4 -5 -3 -4 -4 -3 -4 -4 -3 -4 -4 -4 -4 -4 -4 -4 -5 -4
-8 -8 -8 -8 -8 -7 -7 -6 -6 -6 -5 -6 -5 -5 -4 -4 -4 -4 -4 -4 -5 -5 -5 -5 -4 -5 -5 -4 -5 -4 -4 -4 -4 -4 -4 -4 -4 -4 -4 -5 -5 -5 -6
-8 -8 -8 -9 -8 -8 -7 -7 -6 -6 -6 -6 -5 -5 -5 -5 -4 -4 -4 -4 -4 -4 -5 -5 -5 -4 -4 -4 -4 -5 -4 -4 -4 -4 -4 -5 -5 -5 -5 -5 -5 -5 -6
-8 -8 -8 -8 -8 -8 -8 -7 -6 -6 -6 -5 -5 -5 -5 -5 -4 -4 -5 -4 -4 -5 -5 -4 -5 -5 -5 -5 -5 -5 -6 -4 -4 -5 -5 -5 -6 -5 -5 -5 -5 -6 -7
-8 -8 -8 -8 -8 -8 -8 -7 -7 -6 -6 -5 -5 -5 -5 -6 -5 -5 -5 -5 -5 -5 -4 -4 -5 -4 -5 -5 -5 -5 -5 -5 -5 -5 -5 -5 -5 -5 -6 -6 -6 -6 -7
-9 -9 -9 -9 -8 -8 -8 -7 -7 -6 -6 -5 -5 -5 -5 -5 -5 -5 -5 -5 -5 -5 -5 -5 -5 -5 -5 -5 -5 -5 -5 -5 -5 -5 -5 -5 -6 -6 -6 -6 -6 -7 -7
-9 -9 -9 -9 -8 -8 -8 -7 -7 -6 -6 -6 -6 -5 -5 -5 -5 -5 -5 -5 -5 -5 -5 -5 -5 -5 -6 -6 -5 -5 -6 -5 -5 -6 -6 -6 -6 -6 -6 -7 -7 -8 -8
-9 -9 -9 -9 -9 -8 -8 -8 -7 -7 -6 -6 -6 -6 -5 -5 -5 -6 -6 -6 -5 -5 -5 -6 -6 -6 -5 -6 -5 -5 -6 -6 -6 -7 -7 -6 -7 -7 -7 -7 -8 -9 -8
-9 -9 -10 -10 -9 -8 -8 -8 -8 -7 -7 -7 -7 -6 -6 -6 -6 -6 -6 -6 -5 -5 -5 -5 -6 -6 -7 -6 -5 -6 -7 -6 -6 -6 -7 -7 -7 -8 -8 -9 -8 -8 -7
-9 -10 -10 -10 -9 -9 -8 -8 -8 -8 -8 -7 -7 -7 -7 -6 -7 -7 -6 -6 -5 -5 -6 -6 -6 -6 -6 -6 -6 -6 -6 -7 -7 -7 -7 -7 -8 -8 -8 -8 -8 -7 -7
-10 -10 -10 -10 -9 -9 -9 -8 -8 -8 -8 -8 -8 -7 -7 -7 -7 -6 -6 -6 -6 -6 -6 -6 -6 -6 -6 -6 -6 -7 -7 -7 -7 -8 -8 -9 -9 -8 -8 -8 -8 -7 -7
-11 -10 -10 -10 -9 -9 -9 -8 -8 -8 -8 -8 -8 -8 -7 -7 -6 -6 -6 -6 -7 -7 -6 -7 -7 -7 -7 -7 -7 -7 -8 -8 -8 -9 -9 -8 -8 -8 -8 -8 -8 -8 -7
-11 -11 -10 -10 -10 -10 -9 -9 -8 -8 -8 -8 -8 -8 -7 -7 -7 -7 -6 -6 -6 -6 -6 -7 -7 -7 -7 -8 -8 -8 -8 -9 -9 -8 -8 -8 -8 -8 -8 -8 -8 -8 -8
-11 -11 -11 -10 -10 -10 -9 -9 -9 -8 -8 -8 -8 -8 -8 -8 -8 -7 -7 -7 -7 -7 -7 -8 -8 -8 -8 -8 -9 -9 -9 -8 -8 -8 -8 -8 -8 -8 -8 -8 -8 -8 -8
-12 -11 -11 -11 -10 -10 -9 -9 -9 -8 -8 -8 -8 -8 -8 -8 -8 -7 -7 -7 -8 -8 -8 -8 -8 -9 -9 -9 -9 -8 -8 -8 -8 -8 -8 -8 -8 -8 -8 -8 -8 -8 -8
-12 -11 -11 -11 -10 -10 -9 -9 -9 -8 -8 -8 -8 -8 -8 -8 -8 -8 -8 -8 -8 -8 -9 -9 -9 -9 -9 -9 -8 -8 -8 -9 -9 -8 -8 -8 -8 -8 -8 -8 -8 -8 -9
-12 -11 -11 -11 -10 -10 -9 -9 -9 -9 -8 -8 -8 -8 -8 -8 -8 -9 -9 -9 -9 -9 -9 -9 -9 -9 -9 -9 -9 -9 -9 -9 -9 -9 -9 -9 -8 -8 -8 -8 -9 -9 -9
-12 -11 -11 -11 -11 -10 -10 -9 -9 -9 -9 -9 -8 -8 -8 -8 -8 -9 -9 -9 -9 -9 -9 -10 -9 -9 -9 -9 -9 -9 -9 -9 -9 -9 -9 -9 -9 -9 -8 -9 -9 -9 -10
-11 -11 -11 -11 -11 -10 -10 -9 -9 -9 -9 -9 -9 -8 -8 -8 -9 -9 -9 -9 -10 -10 -10 -10 -9 -9 -9 -9 -9 -10 -10 -10 -10 -10 -9 -9 -9 -9 -9 -9 -9 -10 -11
-11 -12 -11 -11 -11 -10 -10 -9 -9 -10 -9 -9 -9 -9 -9 -9 -9 -9 -10 -10 -9 -10 -10 -11 -10 -10 -10 -10 -10 -10 -10 -10 -10 -10 -10 -10 -10 -10 -10 -10 -10 -11 -11
-11 -11 -11 -11 -11 -10 -10 -10 -10 -10 -10 -10 -9 -9 -10 -10 -10 -10 -10 -10 -10 -10 -11 -11 -11 -11 -11 -10 -10 -11 -11 -11 -10 -10 -10 -10 -10 -10 -10 -11 -11 -12 -12
-11 -12 -11 -11 -11 -10 -10 -10 -10 -10 -10 -10 -10 -10 -10 -10 -10 -10 -10 -10 -10 -10 -10 -10 -10 -11 -11 -11 -11 -11 -11 -11 -11 -11 -11 -11 -11 -11 -11 -12 -12 -12 -13
-12 -12 -11 -11 -10 -10 -10 -10 -11 -11 -11 -10 -10 -11 -10 -11 -11 -11 -11 -10 -10 -10 -10 -10 -11 -11 -11 -11 -11 -11 -11 -11 -11 -11 -12 -12 -12 -12 -12 -12 -13 -13 -14
-12 -12 -11 -11 -11 -11 -11 -11 -11 -11 -11 -11 -11 -11 -11 -12 -11 -11 -11 -11 -11 -11 -11 -12 -12 -12 -11 -11 -11 -11 -12 -12 -12 -12 -12 -12 -12 -13 -13 -13 -14 -14 -15
Height
3037 3034 3030 3027 3024 3021 3017 3014 3011 3009 3007 3007 3005 3005 3004 3005 3007 3011 3014 3017 3020 3024 3026 3029 3032 3036 3039 3042 3045 3048 3049 3051 3055 3057 3060 3062 3063 3065 3066 3068 3067 3068 3068
3029 3024 3021 3018 3015 3013 3010 3006 3003 3001 2999 2998 2997 2997 2998 3000 3001 3002 3006 3010 3013 3016 3020 3023 3024 3028 3031 3035 3038 3040 3043 3046 3048 3050 3054 3056 3057 3057 3059 3060 3060 3061 3061
3020 3016 3013 3009 3005 3003 3001 2998 2995 2992 2990 2990 2989 2990 2991 2992 2994 2996 2998 3002 3004 3008 3011 3014 3018 3021 3024 3027 3029 3034 3035 3039 3041 3044 3047 3047 3049 3051 3052 3053 3053 3053 3052
3011 3007 3003 3000 2996 2993 2991 2990 2988 2985 2982 2981 2981 2981 2983 2986 2986 2989 2990 2993 2997 3000 3004 3007 3011 3013 3017 3020 3023 3026 3029 3032 3034 3037 3039 3041 3042 3044 3045 3046 3046 3045 3044
3000 2997 2993 2990 2988 2985 2982 2981 2979 2977 2974 2972 2972 2974 2975 2978 2979 2983 2984 2987 2991 2994 2998 3001 3003 3006 3010 3014 3016 3019 3022 3024 3026 3030 3032 3034 3036 3037 3037 3038 3038 3037 3036
2990 2986 2983 2980 2979 2976 2973 2972 2971 2969 2966 2963 2963 2966 2968 2970 2975 2976 2979 2981 2982 2988 2991 2995 2998 3002 3004 3008 3011 3013 3016 3018 3020 3023 3025 3027 3028 3030 3031 3031 3030 3030 3030
2979 2975 2971 2969 2969 2968 2965 2963 2962 2961 2958 2955 2955 2957 2960 2965 2968 2970 2973 2976 2979 2982 2985 2990 2992 2996 2999 3001 3004 3007 3010 3012 3014 3017 3019 3021 3022 3023 3023 3024 3024 3024 3024
2970 2965 2961 2959 2959 2958 2957 2955 2954 2953 2950 2947 2947 2950 2954 2957 2961 2964 2968 2971 2975 2978 2981 2985 2987 2991 2992 2996 2999 3001 3003 3006 3008 3011 3014 3015 3016 3017 3018 3018 3018 3018 3017
2961 2956 2952 2950 2949 2950 2949 2948 2947 2945 2943 2940 2940 2944 2948 2951 2955 2958 2961 2965 2969 2973 2976 2980 2983 2986 2989 2991 2994 2997 2999 3002 3005 3007 3009 3010 3010 3011 3011 3013 3012 3012 3012
2951 2947 2944 2942 2941 2942 2942 2941 2941 2939 2936 2935 2936 2939 2941 2944 2948 2951 2954 2958 2962 2967 2970 2975 2977 2982 2984 2987 2990 2992 2996 2998 3001 3002 3003 3004 3005 3006 3006 3006 3007 3007 3007
2942 2939 2936 2934 2934 2935 2935 2935 2935 2933 2931 2931 2932 2933 2935 2937 2940 2945 2949 2954 2958 2962 2966 2970 2973 2977 2979 2982 2985 2988 2992 2993 2995 2997 2999 3000 3000 3001 3001 3003 3004 3003 3002
2934 2931 2929 2928 2928 2929 2930 2930 2929 2927 2927 2928 2928 2929 2931 2933 2935 2940 2945 2949 2953 2958 2962 2965 2969 2972 2975 2978 2982 2984 2987 2989 2992 2994 2994 2995 2996 2998 2999 3000 2999 2999 2998
2927 2924 2923 2924 2924 2924 2925 2925 2924 2923 2924 2924 2924 2926 2928 2930 2933 2936 2941 2946 2950 2954 2958 2962 2965 2969 2972 2975 2978 2981 2984 2986 2988 2990 2991 2993 2995 2996 2997 2996 2996 2995 2994
2922 2920 2919 2920 2920 2920 2921 2921 2920 2920 2922 2922 2923 2924 2926 2929 2932 2935 2939 2943 2947 2951 2954 2957 2962 2966 2970 2973 2976 2979 2981 2983 2985 2987 2990 2992 2993 2993 2993 2993 2992 2991 2990
2918 2916 2916 2917 2917 2917 2918 2918 2916 2918 2920 2921 2922 2924 2926 2929 2932 2936 2939 2942 2945 2949 2954 2958 2961 2965 2968 2971 2974 2976 2979 2982 2984 2987 2989 2990 2990 2991 2990 2990 2989 2988 2986
2916 2913 2913 2914 2914 2915 2915 2915 2914 2916 2919 2920 2921 2923 2926 2930 2933 2936 2939 2942 2946 2950 2953 2957 2960 2963 2966 2970 2973 2976 2979 2981 2983 2985 2987 2988 2988 2988 2988 2987 2986 2984 2982
2913 2913 2913 2912 2913 2913 2914 2913 2912 2915 2917 2919 2921 2923 2926 2930 2933 2936 2939 2942 2946 2949 2953 2956 2960 2963 2966 2969 2973 2976 2978 2980 2983 2984 2986 2987 2987 2986 2985 2984 2982 2980 2979
2914 2913 2912 2911 2911 2911 2911 2911 2910 2912 2915 2918 2920 2922 2925 2929 2932 2936 2939 2942 2945 2948 2952 2956 2960 2963 2967 2970 2973 2976 2978 2980 2982 2984 2984 2985 2984 2984 2983 2981 2979 2979 2977
2914 2912 2911 2909 2909 2909 2909 2908 2908 2909 2912 2916 2919 2921 2924 2928 2932 2936 2939 2943 2946 2949 2953 2957 2961 2964 2968 2971 2974 2976 2978 2980 2981 2982 2983 2983 2982 2981 2980 2978 2977 2976 2973
2912 2910 2909 2907 2906 2907 2907 2906 2906 2907 2910 2914 2918 2921 2923 2926 2931 2935 2939 2942 2946 2950 2955 2958 2962 2965 2969 2972 2974 2976 2978 2979 2980 2981 2981 2981 2980 2979 2978 2976 2974 2972 2970
2910 2908 2906 2905 2904 2904 2904 2904 2903 2905 2908 2912 2916 2920 2924 2928 2933 2936 2939 2943 2947 2951 2956 2960 2963 2967 2969 2972 2974 2976 2977 2978 2979 2980 2979 2979 2978 2977 2975 2973 2971 2969 2966
2907 2905 2904 2902 2901 2901 2901 2901 2901 2903 2906 2910 2914 2919 2924 2929 2933 2936 2940 2943 2948 2951 2956 2960 2964 2967 2969 2971 2973 2975 2976 2977 2977 2977 2977 2977 2976 2974 2972 2970 2967 2965 2963
2905 2903 2901 2900 2899 2899 2898 2898 2899 2900 2904 2908 2912 2918 2924 2928 2932 2936 2939 2943 2948 2952 2955 2959 2962 2965 2968 2970 2971 2973 2974 2975 2975 2975 2975 2974 2972 2970 2968 2965 2963 2961 2959
2902 2900 2899 2898 2897 2896 2895 2896 2896 2898 2902 2906 2911 2918 2923 2927 2931 2935 2939 2943 2947 2951 2954 2957 2960 2963 2965 2967 2969 2971 2971 2972 2972 2972 2971 2970 2968 2966 2964 2962 2960 2957 2955
2900 2898 2897 2895 2894 2893 2893 2893 2894 2897 2900 2905 2911 2917 2922 2926 2930 2934 2938 2943 2947 2951 2954 2957 2960 2962 2964 2965 2967 2968 2969 2969 2968 2968 2967 2966 2964 2962 2960 2958 2956 2953 2951
2898 2896 2895 2893 2892 2892 2891 2892 2893 2896 2900 2905 2911 2916 2921 2925 2929 2934 2938 2942 2947 2950 2953 2955 2957 2959 2961 2963 2964 2965 2965 2965 2964 2964 2963 2961 2960 2958 2956 2954 2952 2949 2947
Wind_Speed
35 35 34 33 33 31 29 28 27 27 29 31 29 24 22 23 28 33 30 30 29 31 33 33 35 34 34 38 34 38 35 31 29 27 33 28 31 27 29 27 27 30 30
37 36 33 33 34 33 31 28 28 27 26 29 22 21 18 20 20 27 31 29 33 36 36 27 31 33 33 32 30 33 31 33 28 33 30 33 30 25 28 27 30 32 30
34 33 31 33 35 34 32 29 28 27 25 27 23 21 18 27 20 26 29 31 32 30 27 31 33 28 29 34 30 30 35 29 36 33 34 25 24 25 27 31 32 27 29
36 35 34 33 33 32 32 29 28 26 25 26 29 32 22 25 22 23 27 33 29 28 32 35 30 31 36 38 33 30 29 28 32 37 28 32 26 28 30 27 26 30 27
39 37 36 34 32 31 30 29 27 26 24 27 26 26 27 30 22 21 28 27 26 20 23 26 27 33 28 23 27 32 30 33 27 21 23 28 28 29 25 27 30 29 25
40 39 38 37 34 31 30 29 28 26 25 26 30 31 26 17 25 24 23 21 22 23 25 21 24 22 19 30 32 26 27 29 25 28 28 28 23 23 25 29 28 25 22
35 35 36 37 33 30 30 28 27 27 26 24 26 27 26 26 24 24 24 24 20 19 24 20 19 24 23 19 23 23 24 25 23 20 21 22 24 26 26 25 22 23 25
33 32 32 31 31 29 28 27 25 26 26 23 25 26 23 20 27 21 28 26 29 24 21 21 21 20 17 25 23 16 20 17 17 19 20 19 19 19 20 20 22 26 27
35 33 31 28 27 27 26 25 23 24 24 20 19 23 26 25 24 27 29 31 26 27 23 21 19 21 18 14 16 16 19 17 19 17 18 18 18 17 18 23 24 21 20
36 33 30 27 24 24 23 23 20 21 19 15 17 20 20 23 28 29 26 21 22 20 27 23 20 19 22 21 18 17 19 16 17 20 16 16 16 19 19 18 15 13 12
34 29 26 23 21 21 20 18 18 19 14 12 11 14 16 18 22 23 24 28 24 24 21 22 22 20 17 19 18 19 20 20 18 16 15 16 15 15 12 11 9 11 16
30 24 22 19 17 17 17 15 16 15 12 12 14 12 13 16 17 27 25 24 23 24 19 20 17 22 17 16 18 17 17 16 14 14 15 13 12 10 8 10 13 14 15
23 19 18 16 15 14 14 13 17 12 12 9 12 12 12 13 17 22 23 22 22 22 17 16 19 16 17 18 17 16 14 14 15 13 11 10 9 9 11 12 12 13 15
16 15 15 13 12 12 11 13 14 13 10 8 10 10 9 13 16 20 22 23 21 20 18 20 20 18 17 16 14 14 15 14 12 12 12 9 10 10 10 10 11 13 15
15 13 12 11 10 10 9 13 10 14 12 12 10 9 11 11 15 17 17 19 19 16 17 18 17 16 15 15 14 15 13 13 15 12 10 9 8 8 8 10 12 13 12
15 10 9 9 9 9 9 12 9 16 15 15 14 13 14 12 15 17 17 17 17 16 17 15 15 16 15 14 14 15 16 13 11 9 8 6 6 7 9 10 11 11 11
9 5 6 7 8 8 9 11 8 17 16 17 14 16 19 16 17 18 18 17 18 17 17 16 16 16 16 18 18 15 13 11 9 7 6 5 5 7 8 9 10 10 12
5 5 6 8 9 8 9 10 7 17 17 17 15 17 20 18 17 17 18 18 18 18 18 18 19 20 19 17 15 13 11 9 7 6 4 4 5 6 8 9 11 12 13
7 8 8 8 8 8 9 10 8 16 19 18 16 19 20 19 18 19 18 14 15 19 21 22 22 18 16 14 12 11 9 7 6 4 2 3 5 7 9 11 12 13 15
10 10 9 9 8 9 10 11 9 16 22 21 18 19 20 23 22 19 17 19 22 21 21 21 19 18 16 13 11 9 7 6 4 2 3 4 7 9 11 12 14 16 17
11 10 10 9 9 9 10 11 9 16 23 23 20 19 18 19 18 17 18 23 24 23 21 19 17 16 14 11 10 8 6 4 2 3 5 7 9 11 13 14 16 17 18
11 10 10 10 8 8 9 10 10 17 23 24 23 22 19 18 16 16 21 24 24 23 21 20 17 15 13 11 9 7 6 5 5 7 8 10 13 14 15 16 17 18 18
12 11 10 9 8 8 9 9 10 17 23 25 26 22 21 19 18 18 22 23 21 20 20 21 20 18 15 12 10 9 9 9 10 10 11 13 15 16 16 17 18 19 19
11 11 8 7 7 8 8 8 10 16 23 26 25 22 21 19 17 17 20 20 19 18 19 18 17 17 16 14 13 12 12 12 12 12 13 15 16 16 17 18 19 19 18
10 10 7 9 8 7 7 8 11 17 22 24 23 23 20 18 18 19 18 17 17 16 14 12 11 11 12 11 11 12 12 12 12 13 14 15 16 17 18 19 19 18 17
9 9 8 8 5 5 6 8 13 17 20 22 23 21 19 18 17 16 17 17 16 14 12 12 13 12 11 11 11 12 12 12 13 14 15 16 17 18 18 18 18 17 16
Wind_Direction
298 296 292 291 291 293 296 293 287 289 273 271 269 268 259 253 242 239 242 241 236 230 238 237 237 237 235 238 241 237 241 254 248 243 252 245 255 263 254 258 262 268 275
297 296 294 291 288 286 288 291 290 287 278 264 260 254 243 246 249 244 232 237 232 235 237 229 246 237 231 234 240 236 239 252 236 246 248 252 255 264 250 257 261 265 271
300 299 297 291 288 284 283 285 288 291 285 254 243 235 240 247 234 238 232 228 237 230 233 235 227 228 230 227 243 243 241 234 240 249 243 259 261 247 256 259 265 274 280
296 295 294 291 289 290 278 279 283 287 291 254 244 239 237 247 239 249 224 227 230 241 233 237 234 243 230 236 239 241 242 237 241 244 244 247 257 256 264 262 271 268 275
297 294 292 290 292 293 281 275 278 287 291 266 247 240 243 235 239 240 230 238 231 226 231 233 230 229 233 237 239 230 241 238 243 238 246 249 258 261 258 264 267 275 274
295 290 286 286 286 290 286 275 274 284 287 287 246 235 227 225 228 233 232 223 211 211 221 234 223 222 226 223 232 244 234 243 242 243 249 253 257 254 252 260 271 274 273
297 291 284 278 279 282 286 278 274 283 288 283 250 232 232 242 237 229 228 232 227 224 224 230 225 228 229 233 229 237 232 239 234 239 234 241 248 251 253 258 258 266 270
305 301 292 285 274 275 282 280 275 282 290 279 250 233 216 231 229 230 230 227 228 226 216 227 222 239 230 223 238 235 235 235 232 238 244 256 258 256 258 261 264 269 270
306 303 295 288 275 269 278 281 275 282 291 272 240 219 220 225 229 237 239 239 230 222 234 219 222 232 230 221 217 226 219 234 232 246 257 255 262 264 263 264 268 266 263
306 301 296 285 273 266 274 279 273 283 283 256 235 229 233 228 229 240 240 212 218 219 217 219 228 220 211 229 230 219 213 224 235 250 257 261 263 267 268 265 259 249 252
305 300 295 283 267 264 273 274 276 290 257 243 229 229 232 230 222 225 209 206 216 214 207 222 221 218 227 223 227 215 221 232 233 238 249 258 260 256 240 230 237 260 274
304 297 291 275 260 263 274 267 277 284 233 235 229 239 229 222 220 207 209 209 202 205 219 211 214 228 221 215 218 219 224 227 228 240 242 240 236 222 220 247 264 274 279
300 292 283 266 255 265 271 271 289 241 231 237 222 213 215 211 198 191 191 191 197 210 207 187 205 219 203 205 205 209 212 224 230 225 219 201 192 217 247 260 271 280 285
298 288 272 254 250 265 265 278 292 212 212 191 169 176 188 192 189 183 183 190 198 201 200 190 196 195 196 196 196 206 216 214 206 192 180 192 226 243 258 273 283 287 290
303 287 263 243 250 262 257 287 263 202 193 175 178 189 185 180 186 193 197 196 197 198 187 185 187 180 183 194 199 196 192 186 175 178 204 219 236 257 273 283 288 292 296
305 279 246 240 260 260 253 292 245 201 196 181 169 164 160 167 179 180 176 172 172 169 170 175 178 179 181 182 178 169 161 169 185 196 210 228 250 271 285 294 299 305 316
309 270 255 267 271 257 261 291 246 203 196 192 183 174 167 172 174 173 171 172 170 169 163 168 173 170 165 162 158 165 175 180 185 197 212 236 269 291 302 308 316 323 319
326 306 299 293 278 250 266 290 265 208 198 202 191 178 172 174 175 174 172 169 168 169 167 163 160 156 157 161 166 172 177 181 187 200 219 259 294 308 319 329 328 318 314
323 314 308 302 279 243 270 287 266 206 195 195 195 177 174 174 173 169 167 172 176 170 165 161 158 157 159 164 171 176 180 184 189 202 240 297 316 331 337 333 324 319 318
310 306 303 300 280 240 273 285 261 206 196 188 194 189 181 178 175 172 175 170 165 165 165 162 162 163 171 175 177 176 181 185 195 234 289 320 332 336 335 329 324 321 319
307 301 295 290 285 236 276 279 254 205 198 190 191 194 194 179 176 181 177 171 170 166 166 169 171 175 177 178 178 183 191 198 228 292 320 325 328 328 326 325 324 320 317
306 302 294 287 257 257 277 267 245 205 198 191 189 195 189 179 184 186 182 180 180 178 178 177 179 182 184 188 191 202 221 245 280 294 304 314 318 320 322 322 319 317 314
307 304 295 287 246 277 275 258 237 206 196 193 193 190 183 186 189 190 189 188 189 189 188 186 189 194 197 203 212 226 245 265 285 292 303 309 313 316 316 316 316 315 312
310 307 291 288 264 291 269 251 224 203 196 195 190 182 186 189 188 188 192 194 199 203 202 203 206 210 214 220 233 247 259 273 286 296 303 307 310 310 311 314 315 314 313
310 307 285 300 269 293 260 234 205 196 193 191 180 178 182 183 184 186 191 197 201 203 206 207 211 215 221 233 246 259 272 282 290 296 300 303 304 309 313 314 314 314 314
309 310 288 307 268 290 241 203 190 185 182 173 171 175 173 178 181 184 195 199 195 197 196 202 209 219 230 244 257 268 276 284 291 294 297 303 309 312 314 315 315 316 318